カタログに戻る

ARIANE 2 DEB

LostGTO
NORAD 27029·DEBRIS·🇫🇷 France

打ち上げ Jan 27, 1989 から Guiana Space Centre

Loading…

TLE

古いSource: Space-Track

元期: Jan 4, 2025, 03:33 UTC

1 27029U 89006J   25004.14830088  .00000162  00000-0  31320-2 0  9996
2 27029   8.9753   6.5111 7131022 219.4844  57.3217  2.28598478 95749

AllMySatでARIANE 2 DEBをリアルタイム追跡

Download on the App Store